Regional Weather Roundup
Issued by NWS Mt. Holly, NJ

Home | Current Version | Previous Version | Text Only | Print | Product List | Glossary On
Versions: 1 2 3 4 5 6 7 8 9 10 11 12 13 14 15 16 17 18 19 20 21 22 23 24 25 26 27 28 29 30 31 32 33 34 35 36 37 38 39 40 41 42 43 44 45 46 47 48 49 50
000
ASUS41 KPHI 311110
RWRPHI

REGIONAL WEATHER ROUNDUP
NATIONAL WEATHER SERVICE MOUNT HOLLY NJ
700 AM EDT SUN AUG 31 2014

NOTE:  "FAIR" INDICATES FEW OR NO CLOUDS BELOW 12,000 FEET WITH NO
SIGNIFICANT WEATHER AND/OR OBSTRUCTIONS TO VISIBILITY.

 * = STATION DOES NOT REPORT PRECIPITATION (E.G. RAIN, SNOW, ETC.)
        OR FOG.

NJZ015>026-311200-
SOUTHERN NEW JERSEY

CITY           SKY/WX    TMP DP  RH WIND       PRES   REMARKS
POMONA         MOCLDY    74  72  93 S7        30.13S
RIO GRANDE*    CLOUDY    75  70  83 S9        30.15S
MILLVILLE      MOCLDY   N/A N/A N/A CALM      30.13S
WRIGHTSTOWN    MOCLDY    69  69  98 SE2       30.10S
MOUNT HOLLY    MOCLDY    71  67  87 CALM      30.12R
TRENTON        CLOUDY    71  66  84 S6        30.11S

$$
NJZ001>014-311200-
NORTHERN NEW JERSEY

CITY           SKY/WX    TMP DP  RH WIND       PRES   REMARKS
SUSSEX         CLOUDY    70  64  81 CALM      30.11R
ANDOVER*         N/A     69  66  90 VRB3      30.12R
MORRISTOWN     CLOUDY    68  64  88 CALM      30.12R
NEWARK         CLOUDY    74  67  78 S9        30.11S
TETERBORO      CLOUDY    73  64  73 S5        30.10S
CALDWELL       CLOUDY    71  62  73 VRB3      30.12R
SOMERVILLE     CLOUDY    69  64  84 CALM      30.10R
ALLAIRE*       MOCLDY    72  64  78 SW5       30.13S
TOMS RIVER*    MOCLDY    70  68  94 CALM      30.13S

$$
PAZ043-044-047-054-055-060>062-066>071-311200-
EASTERN PENNSYLVANIA

CITY           SKY/WX    TMP DP  RH WIND       PRES   REMARKS
PHILADELPHIA   CLOUDY    74  70  87 S6        30.12R
NORTH PHILA    CLOUDY    75  68  78 SW5       30.13R
BLUE BELL      CLOUDY    73  70  88 S3        30.11R
DOYLESTOWN     CLOUDY    71  69  93 S5        30.11S
QUAKERTOWN*    CLOUDY    72  68  88 MISG      30.13R
POTTSTOWN      CLOUDY    72  69  90 CALM      30.12S
LANCASTER      CLOUDY    72  70  93 SE3       30.10R FOG
COATESVILLE    CLOUDY    72  72 100 CALM      30.13R FOG
READING        CLOUDY    74  70  87 S6        30.09R
ALLENTOWN      CLOUDY    73  67  81 S5        30.10S
MOUNT POCONO   FOG       68  66  93 SW7       30.14S VSB 1/4
HAZLETON       CLOUDY    68  68 100 S3        30.16R FOG
WILKES BARRE   CLOUDY    73  67  81 SW6       30.09S

$$
DEZALL-MDZ008-012-015-019-020-311200-
DELAWARE AND EASTERN MARYLAND

CITY           SKY/WX    TMP DP  RH WIND       PRES   REMARKS
WILMINGTON     CLOUDY    74  72  93 S7        30.12S
DOVER          MOCLDY    74  74 100 S12       30.11S
GEORGETOWN     MOCLDY    74  72  93 S12       30.15R FOG
EASTON         PTCLDY    75  75 100 S3        30.17R
PATUXENT       MOCLDY    74  72  93 SW8       30.14R
OCEAN CITY     MOCLDY    77  75  93 SW8       30.15R
WALLOPS ISLAND MOCLDY    76  73  91 SW7       30.16R
CAMBRIDGE      PTCLDY    77  73  88 S3        30.14R
SALISBURY      CLOUDY    76  73  91 S6        30.15R FOG

$$
PAZ001-021-NYZ056-072-MDZ011-DCZ001-311200-
OTHER NEARBY LOCATIONS

CITY           SKY/WX    TMP DP  RH WIND       PRES   REMARKS
HARRISBURG     CLOUDY    74  71  91 SE5       30.08R
STATE COLLEGE  TSTM      70  70 100 W12       30.11R
WILLIAMSPORT   CLOUDY    72  66  81 E6        30.05R
BINGHAMTON     CLOUDY    69  66  90 S7        30.09R FOG
NEW YORK CITY  CLOUDY    74  65  73 VRB3      30.14S
BALTIMORE      MOCLDY    73  72  96 S3        30.10S
WASHINGTON DC  MOCLDY    77  71  82 S12       30.12R

$$


USA.gov is the U.S. government's official web portal to all federal, state and local government web resources and services.